Regional Weather Roundup
Issued by NWS

Home | Current Version | Previous Version | Text Only | Print | Product List | Glossary Off
Versions: 1 2 3 4 5 6 7 8 9 10 11 12 13 14 15 16 17 18 19 20 21 22 23 24 25 26 27 28 29 30 31 32 33 34 35 36 37 38 39 40 41 42 43 44 45 46 47 48 49 50

555
ASUS45 KSLC 050710
RWRUT

UTAH REGIONAL WEATHER ROUNDUP
NATIONAL WEATHER SERVICE SALT LAKE CITY UT
1200 AM MST FRI FEB 05 2016

UTZ001>011-023>025-050800-

NORTHERN UTAH

CITY           SKY/WX    TMP DP  RH WIND       PRES   REMARKS
BRIGHAM CITY   CLOUDY    27  24  88 N6        30.49R WCI  20
HILL AFB       CLOUDY    27  21  80 NW2       30.46R
LOGAN          LGT SNOW  23  22  96 CALM      30.47R FOG
OGDEN          CLOUDY    27  24  89 CALM      30.46R
PROVO AIRPORT  CLOUDY    21  18  86 CALM      30.49R
SALT LAKE CITY FLURRIES  28  22  78 SE6       30.47R WCI  22
VERNAL         CLOUDY     7   3  84 CALM      30.42S
WENDOVER       PTCLDY    25  18  74 W6        30.47R WCI  18
HEBER CITY     LGT SNOW  21  19  93 CALM      30.42R
WEST JORDAN    CLOUDY    27  21  80 S3        30.47R

$$

UTZ012>022-026-027-050800-

SOUTHERN/CENTRAL UTAH

CITY           SKY/WX    TMP DP  RH WIND       PRES   REMARKS
BLANDING       CLEAR      9   8  93 N3        30.43F
BRYCE CANYON   CLEAR      6   3  87 W6        30.37S WCI  -4
CEDAR CITY     PTCLDY     8   5  87 E3        30.43R
DELTA          CLOUDY     4   1  89 CALM      30.51R VSB<1/4
HANKSVILLE     PTCLDY     0  -4  85 MISG      30.52R
MILFORD        FOG        1  -2  87 NW8       30.48S VSB 1/4 WCI -13
MOAB/CYNLANDS  PTCLDY     2  -1  88 W3        30.47S
PRICE          MOCLDY    11   7  84 E6        30.38R WCI   1
ST GEORGE      PTSUNNY   36  25  64 N3        30.47S
KANAB          CLEAR     32  23  69 NW9       30.45F WCI  24

$$

REGIONAL REPORTS     COLORADO/ARIZONA

CITY           SKY/WX    TMP DP  RH WIND       PRES   REMARKS
CRAIG, CO      LGT SNOW  15  11  83 CALM      30.32S FOG
GRAND JUNCTION CLOUDY    12  11  95 CALM      30.44S
RIFLE          LGT SNOW  16  12  84 CALM      30.40S FOG
MONTROSE       CLOUDY    15   8  73 SE5       30.43S WCI   8
CORTEZ         CLOUDY     4   1  88 E9        30.36S WCI -10
PAGE, AZ       CLEAR     28  20  71 SE3       30.43S
GRAND CANYON   CLEAR     17  11  77 NE3       30.38R
KINGMAN        CLEAR     32  20  61 E9        30.39R WCI  24
FLAGSTAFF      CLEAR     25  14  63 E16       30.31R WCI  12

$$

REGIONAL REPORTS    NEVADA/IDAHO/WYOMING

CITY           SKY/WX    TMP DP  RH WIND       PRES   REMARKS
LAS VEGAS, NV  PTCLDY    45  24  43 NE3       30.40S
ELY            CLEAR      6   2  83 S16       30.47R WCI -12
ELKO           PTCLDY    10   7  87 CALM      30.51R
POCATELLO, ID  CLOUDY    24  21  88 NE8       30.46R WCI  15
BURLEY         CLOUDY    34  28  79 NW6       30.43R WCI  29
EVANSTON, WY   LGT SNOW  19  15  84 W14       30.34S FOG     WCI   6
ROCK SPRINGS   CLOUDY    16  12  84 W17       30.28R WCI   0

$$




USA.gov is the U.S. government's official web portal to all federal, state and local government web resources and services.